Tracking 29892 objects as of 21-Nov-2024
HD Live streaming from Space Station
objects crossing your sky now

STARLINK-6273

Track STARLINK-6273 now!
10-day predictions
STARLINK-6273 is classified as:


NORAD ID: 56395
Int'l Code: 2023-061X
Perigee: 565.4 km
Apogee: 567.0 km
Inclination: 43.0 °
Period: 95.8 minutes
Semi major axis: 6937 km
RCS: Unknown
Launch date: May 4, 2023
Source: United States (US)
Launch site: AIR FORCE EASTERN TEST RANGE (AFETR)
Your satellite tracking list
Your tracking list is empty




NASA's NSSDC Master Catalog

Two Line Element Set (TLE):
1 56395U 23061X   24325.92967268  .00000755  00000-0  70932-4 0  9997
2 56395  43.0053 239.1976 0001205 264.7821  95.2884 15.02537966 85924
Source of the keplerian elements: AFSPC